Hourly Data Report for September 04, 2017

All times are specified in Local Standard Time (LST). Add 1 hour to adjust for Daylight Saving Time where and when it is observed.

POND INLET A
NUNAVUT

72°41'22.000" N
77°58'08.000" W
61.60 m
2403206
71095
YIO

Download Data

Hourly Data (September 2017)
Hourly Data Report for September 4, 2017
Temp Definition
°C
Dew Point Temp Definition
°C
Rel Hum Definition
%
Wind Dir Definition
10's deg

Wind Spd Definition
km/h
Visibility Definition
km
Stn Press Definition
kPa
Hmdx Definition


Wind Chill Definition


Weather Definition


TIME
00:00 Legend Double Dagger -0.8 -2.4 89 17 15 16.1 100.27   -5 LegendNANA
01:00 Legend Double Dagger -0.2 -1.6 90 17 15 16.1 100.28   -5 LegendNANA
02:00 Legend Double Dagger 0.0 -1.5 90 15 18 16.1 100.29   -5 LegendNANA
03:00 Legend Double Dagger 0.5 -1.1 89 17 15 16.1 100.33     LegendNANA
04:00 Legend Double Dagger 0.7 -1.1 88 18 21 16.1 100.34     LegendNANA
05:00 Legend Double Dagger 0.4 -1.4 88 17 24 16.1 100.36     LegendNANA
06:00 Legend Double Dagger 1.1 -0.7 88 17 21 16.1 100.39     LegendNANA
07:00 Legend Double Dagger 1.6 -0.3 87 18 15 16.1 100.42     LegendNANA
08:00 Legend Double Dagger 1.6 -1.0 83 20 17 16.1 100.44     LegendNANA
09:00 Legend Double Dagger 3.4 -0.4 76 20 17 16.1 100.44     LegendNANA
10:00 Legend Double Dagger 3.4 -0.8 74 19 15 16.1 100.45     LegendNANA
11:00 Legend Double Dagger 3.5 -1.7 69 24 11 16.1 100.46     LegendNANA
12:00 Legend Double Dagger 3.5 -0.7 74 20 17 16.1 100.46     LegendNANA
13:00 Legend Double Dagger 3.1 -1.3 73 21 15 16.1 100.49     LegendNANA
14:00 Legend Double Dagger 3.0 -1.9 70 23 17 16.1 100.51     LegendNANA
15:00 Legend Double Dagger 2.8 -4.0 61 24 24 16.1 100.53     LegendNANA
16:00 Legend Double Dagger 3.2 -4.7 56 23 24 16.1 100.56     LegendNANA
17:00 Legend Double Dagger 2.8 -4.2 60 23 24 16.1 100.57     LegendNANA
18:00 Legend Double Dagger 2.2 -4.0 64 22 21 16.1 100.58     LegendNANA
19:00 Legend Double Dagger 0.9 -4.0 70 19 17 16.1 100.60     LegendNANA
20:00 Legend Double Dagger -1.4 -5.5 74 18 17 16.1 100.60   -7 LegendNANA
21:00 Legend Double Dagger -1.9 -4.7 81 17 17 16.1 100.57   -7 LegendNANA
22:00 Legend Double Dagger -2.3 -4.6 84 14 13 16.1 100.57   -7 LegendNANA
23:00 Legend Double Dagger -2.4 -5.1 82 14 11 16.1 100.54   -6 LegendNANA

Notes on Data Quality.

Legend

  • E = Estimated
  • M = Missing
  • NA = Not Available
  • ‡ = Partner data that is not subject to review by the National Climate Archives
Date modified: